Weather History for Walhalla, ND

Change the Weather History Date:

Thursday, February 14, 2013

  Actual Average (KGAF) Record (KGAF)
Temperature  
Mean Temperature 10 °F -  
Max Temperature 19 °F 20 °F 41 °F (1984)
Min Temperature 1 °F -1 °F -24 °F (1974)
Degree Days  
Heating Degree Days 55    
Moisture  
Dew Point 5 °F    
Average Humidity 83    
Maximum Humidity 100    
Minimum Humidity 62    
Precipitation  
Precipitation 0.00 in - - ()
Sea Level Pressure  
Sea Level Pressure 30.12 in    
Wind  
Wind Speed 11 mph (NNW)    
Max Wind Speed 15 mph    
Max Gust Speed 18 mph    
Visibility 10 miles    
Events Snow    
Averages and records for this station are not official NWS values.
T = Trace of Precipitation, MM = Missing Value Source: NWS Daily Summary

Daily Weather History Graph

Daily Weather History Graph

Search for Another Location

Airport:

Trip Planner

Search our weather history database for the weather conditions in past years. The results will help you decide how hot, cold, wet, or windy it might be!

Date:

Astronomy

Feb. 14, 2013 Rise Set
Actual Time 7:41 AM CST 5:51 PM CST
Civil Twilight 7:08 AM CST 6:23 PM CST
Nautical Twilight 6:31 AM CST 7:00 PM CST
Astronomical Twilight 5:54 AM CST 7:37 PM CST
Moon 9:14 AM CST (2/14) 11:27 PM CST (2/14)
Length of Visible Light 11h 15m
Length of Day
10h 10m
Waxing Crescent, 22% of the Moon is Illuminated
Feb 14
Waxing Crescent
Feb 17
First Quarter
Feb 25
Full
Mar 4
Last Quarter
Mar 11
New

Hourly Weather History & Observations

Time (CST) Temp. Windchill Dew Point Humidity Pressure Visibility Wind Dir Wind Speed Gust Speed Precip Events Conditions
12:15 AM 19.4 °F 7.2 °F 15.8 °F 86% 29.84 in 10.0 mi North 11.5 mph - N/A   Overcast
12:35 AM 17.6 °F 4.3 °F 14.0 °F 86% 29.85 in 10.0 mi NNE 12.7 mph - N/A   Overcast
12:55 AM 17.6 °F 4.3 °F 14.0 °F 86% 29.85 in 10.0 mi NNE 12.7 mph - N/A   Overcast
1:15 AM 17.6 °F 5.0 °F 14.0 °F 86% 29.86 in 10.0 mi NNE 11.5 mph - N/A   Overcast
1:35 AM 17.6 °F 5.7 °F 14.0 °F 86% 29.87 in 10.0 mi NNE 10.4 mph - N/A   Overcast
1:55 AM 15.8 °F 0.9 °F 14.0 °F 93% 29.88 in 10.0 mi NNE 15.0 mph 18.4 mph N/A   Overcast
2:15 AM 15.8 °F 1.4 °F 12.2 °F 86% 29.89 in 10.0 mi North 13.8 mph - N/A   Overcast
2:35 AM 14.0 °F -0.8 °F 10.4 °F 86% 29.91 in 10.0 mi North 13.8 mph - N/A   Overcast
2:55 AM 14.0 °F -0.2 °F 8.6 °F 79% 29.91 in 10.0 mi North 12.7 mph - N/A   Overcast
3:15 AM 12.2 °F -3.1 °F 8.6 °F 85% 29.92 in 10.0 mi North 13.8 mph - N/A   Overcast
3:35 AM 10.4 °F -6.0 °F 8.6 °F 92% 29.94 in 10.0 mi North 15.0 mph - N/A   Overcast
3:55 AM 10.4 °F -4.8 °F 6.8 °F 85% 29.94 in 10.0 mi North 12.7 mph - N/A   Overcast
4:15 AM 10.4 °F -4.8 °F 6.8 °F 85% 29.95 in 10.0 mi North 12.7 mph - N/A   Overcast
4:35 AM 8.6 °F -8.3 °F 6.8 °F 92% 29.96 in 10.0 mi North 15.0 mph - N/A   Overcast
4:55 AM 8.6 °F -7.0 °F 5.0 °F 85% 29.97 in 10.0 mi North 12.7 mph - N/A   Overcast
5:15 AM 8.6 °F -6.3 °F 5.0 °F 85% 29.98 in 10.0 mi North 11.5 mph - N/A   Mostly Cloudy
5:35 AM 6.8 °F -7.8 °F 5.0 °F 92% 29.99 in 10.0 mi North 10.4 mph - N/A   Overcast
5:55 AM 6.8 °F -9.3 °F 5.0 °F 92% 30.00 in 10.0 mi North 12.7 mph - N/A   Overcast
6:15 AM 6.8 °F -6.9 °F 5.0 °F 92% 30.02 in 10.0 mi NNW 9.2 mph - N/A   Overcast
6:35 AM 5.0 °F -10.8 °F 3.2 °F 92% 30.03 in 10.0 mi NNW 11.5 mph - N/A   Scattered Clouds
6:55 AM 5.0 °F -10.8 °F 1.4 °F 85% 30.05 in 10.0 mi NNW 11.5 mph - N/A   Clear
7:15 AM 3.2 °F -12.2 °F 1.4 °F 92% 30.06 in 10.0 mi NNW 10.4 mph - N/A   Partly Cloudy
7:35 AM 1.4 °F -15.3 °F -0.4 °F 92% 30.07 in 10.0 mi NNW 11.5 mph - N/A   Mostly Cloudy
7:55 AM 1.4 °F -13.5 °F -0.4 °F 92% 30.08 in 10.0 mi NNW 9.2 mph - N/A   Overcast
8:15 AM 1.4 °F -12.5 °F -0.4 °F 92% 30.09 in 10.0 mi NNW 8.1 mph - N/A   Partly Cloudy
8:35 AM 1.4 °F -11.3 °F -0.4 °F 92% 30.11 in 10.0 mi NW 6.9 mph - N/A   Clear
8:55 AM 1.4 °F -11.3 °F -0.4 °F 92% 30.12 in 10.0 mi NW 6.9 mph - N/A   Clear
9:15 AM 1.4 °F -12.5 °F -0.4 °F 92% 30.13 in 10.0 mi NW 8.1 mph - N/A   Clear
9:35 AM 3.2 °F -9.1 °F -0.4 °F 85% 30.13 in 10.0 mi NNW 6.9 mph - N/A   Clear
9:55 AM 5.0 °F -9.1 °F -0.4 °F 78% 30.14 in 10.0 mi NNW 9.2 mph - N/A   Clear
10:15 AM 5.0 °F -10.8 °F 1.4 °F 85% 30.15 in 10.0 mi NNW 11.5 mph - N/A   Clear
10:35 AM 6.8 °F -7.8 °F 3.2 °F 85% 30.16 in 10.0 mi NNW 10.4 mph - N/A   Clear
10:55 AM 8.6 °F -5.5 °F 5.0 °F 85% 30.16 in 10.0 mi NNW 10.4 mph - N/A   Clear
11:15 AM 8.6 °F -6.3 °F 5.0 °F 85% 30.17 in 10.0 mi NW 11.5 mph - N/A   Clear
11:35 AM 10.4 °F -4.1 °F 5.0 °F 79% 30.17 in 10.0 mi NW 11.5 mph - N/A   Mostly Cloudy
11:55 AM 10.4 °F -4.1 °F 5.0 °F 79% 30.17 in 10.0 mi NW 11.5 mph - N/A   Mostly Cloudy
12:15 PM 12.2 °F -1.8 °F 6.8 °F 79% 30.17 in 10.0 mi NNW 11.5 mph 16.1 mph N/A   Clear
12:35 PM 12.2 °F -1.8 °F 5.0 °F 73% 30.17 in 10.0 mi NNW 11.5 mph 17.3 mph N/A   Clear
12:55 PM 12.2 °F -1.8 °F 5.0 °F 73% 30.17 in 10.0 mi NNW 11.5 mph - N/A   Clear
1:15 PM 12.2 °F -1.0 °F 5.0 °F 73% 30.17 in 10.0 mi NNW 10.4 mph - N/A   Partly Cloudy
1:35 PM 14.0 °F 2.0 °F 5.0 °F 67% 30.17 in 10.0 mi NNW 9.2 mph - N/A   Mostly Cloudy
1:55 PM 14.0 °F 1.2 °F 5.0 °F 67% 30.18 in 10.0 mi NW 10.4 mph - N/A   Overcast
2:15 PM 14.0 °F 2.9 °F 5.0 °F 67% 30.18 in 10.0 mi NNW 8.1 mph - N/A   Mostly Cloudy
2:35 PM 14.0 °F 2.0 °F 5.0 °F 67% 30.18 in 10.0 mi NNW 9.2 mph - N/A   Mostly Cloudy
2:55 PM 15.8 °F 5.1 °F 5.0 °F 62% 30.19 in 10.0 mi NNW 8.1 mph - N/A   Overcast
3:15 PM 15.8 °F 3.4 °F 5.0 °F 62% 30.19 in 10.0 mi NW 10.4 mph - N/A   Overcast
3:35 PM 15.8 °F 5.1 °F 6.8 °F 68% 30.19 in 10.0 mi NW 8.1 mph - N/A   Mostly Cloudy
3:55 PM 15.8 °F 3.4 °F 6.8 °F 68% 30.20 in 10.0 mi NW 10.4 mph - N/A   Mostly Cloudy
4:15 PM 15.8 °F 3.4 °F 5.0 °F 62% 30.20 in 10.0 mi NW 10.4 mph - N/A   Mostly Cloudy
4:35 PM 15.8 °F 4.2 °F 6.8 °F 68% 30.21 in 10.0 mi NW 9.2 mph - N/A   Overcast
4:55 PM 15.8 °F 5.1 °F 8.6 °F 73% 30.21 in 10.0 mi NNW 8.1 mph - N/A   Overcast
5:15 PM 15.8 °F 3.4 °F 8.6 °F 73% 30.21 in 10.0 mi NW 10.4 mph - N/A   Overcast
5:35 PM 15.8 °F 5.1 °F 8.6 °F 73% 30.22 in 10.0 mi NNW 8.1 mph - N/A Snow Light Snow
5:55 PM 15.8 °F 4.2 °F 8.6 °F 73% 30.22 in 10.0 mi NNW 9.2 mph - N/A   Overcast
6:15 PM 15.8 °F 2.7 °F 8.6 °F 73% 30.23 in 10.0 mi NNW 11.5 mph - N/A   Overcast
6:35 PM 14.0 °F 1.2 °F 8.6 °F 79% 30.23 in 10.0 mi NNW 10.4 mph - N/A   Overcast
6:55 PM 14.0 °F 2.9 °F 8.6 °F 79% 30.23 in 10.0 mi NNW 8.1 mph - N/A   Mostly Cloudy
7:15 PM 12.2 °F 0.7 °F 8.6 °F 85% 30.23 in 10.0 mi NNW 8.1 mph - N/A   Scattered Clouds
7:35 PM 10.4 °F 2.2 °F 6.8 °F 85% 30.24 in 10.0 mi NNW 4.6 mph - N/A   Partly Cloudy
7:55 PM 6.8 °F -3.5 °F 6.8 °F 100% 30.24 in 10.0 mi NW 5.8 mph - N/A   Scattered Clouds
8:15 PM 6.8 °F -3.5 °F 5.0 °F 92% 30.24 in 10.0 mi NW 5.8 mph - N/A   Scattered Clouds
8:35 PM 5.0 °F -4.1 °F 5.0 °F 100% 30.24 in 10.0 mi WNW 4.6 mph - N/A   Partly Cloudy
8:55 PM 5.0 °F -5.6 °F 3.2 °F 92% 30.24 in 10.0 mi WNW 5.8 mph - N/A   Clear
9:15 PM 3.2 °F -7.8 °F 1.4 °F 92% 30.24 in 10.0 mi WNW 5.8 mph - N/A   Partly Cloudy
9:35 PM 1.4 °F -9.9 °F -0.4 °F 92% 30.24 in 10.0 mi WNW 5.8 mph - N/A   Partly Cloudy
9:55 PM 1.4 °F -8.3 °F -0.4 °F 92% 30.24 in 10.0 mi WNW 4.6 mph - N/A   Mostly Cloudy
10:15 PM 1.4 °F -9.9 °F -0.4 °F 92% 30.25 in 10.0 mi WNW 5.8 mph - N/A   Overcast
10:35 PM 1.4 °F -9.9 °F -0.4 °F 92% 30.25 in 10.0 mi WNW 5.8 mph - N/A   Overcast
10:55 PM 1.4 °F -9.9 °F 1.4 °F 100% 30.25 in 10.0 mi WNW 5.8 mph - N/A   Overcast
11:15 PM 3.2 °F -7.8 °F 1.4 °F 92% 30.25 in 10.0 mi WNW 5.8 mph - N/A   Overcast
11:35 PM 1.4 °F -8.3 °F -0.4 °F 92% 30.26 in 10.0 mi WNW 4.6 mph - N/A   Overcast
11:55 PM 5.0 °F -5.6 °F -0.4 °F 78% 30.26 in 10.0 mi NW 5.8 mph - N/A   Mostly Cloudy